Location: Asbacherhof
(48.8543°N, 10.7903°E)
Time: 04:27:49
(UTC+00:00)

ADEOS II - Visible Passes

Search period start: 03 October 2022 00:00
Search period end: 13 October 2022 00:00
Orbit: 798 x 801 km, 98.6° (Epoch: 02 October)

Date Brightness Start Highest point End Pass type
(mag) Time Alt. Az. Time Alt. Az. Time Alt. Az.
03 Oct 4.8 00:14:13 10° NE 00:15:01 13° NE 00:15:01 13° NE visible
03 Oct 3.3 01:52:52 10° N 01:55:57 36° N 01:55:57 36° N visible
03 Oct 4.0 03:34:28 10° NNW 03:36:51 13° NW 03:36:51 13° NW visible
04 Oct 3.7 01:26:05 10° NNE 01:28:45 31° NNE 01:28:45 31° NNE visible
04 Oct 3.7 03:06:44 10° NNW 03:09:40 20° NW 03:09:40 20° NW visible
05 Oct 4.2 00:59:28 10° NNE 01:01:33 23° NE 01:01:33 23° NE visible
05 Oct 3.4 02:39:27 10° N 02:42:28 26° NNW 02:42:28 26° NNW visible
06 Oct 4.7 00:33:06 10° NE 00:34:21 16° NE 00:34:21 16° NE visible
06 Oct 3.4 02:12:23 10° N 02:15:16 31° NNW 02:15:16 31° NNW visible
07 Oct 3.6 01:45:30 10° NNE 01:48:04 30° N 01:48:04 30° N visible
07 Oct 3.9 03:26:47 10° NNW 03:28:59 15° NW 03:28:59 15° NW visible
08 Oct 4.1 01:18:45 10° NNE 01:20:52 25° NNE 01:20:52 25° NNE visible
08 Oct 3.7 02:59:13 10° N 03:01:47 20° NW 03:01:47 20° NW visible
09 Oct 4.5 00:52:11 10° NNE 00:53:40 18° NE 00:53:40 18° NE visible
09 Oct 3.6 02:32:00 10° N 02:34:35 25° NNW 02:34:35 25° NNW visible
10 Oct 4.9 00:25:55 10° NE 00:26:29 12° NE 00:26:29 12° NE visible
10 Oct 3.7 02:04:59 10° N 02:07:24 27° N 02:07:24 27° N visible
10 Oct 4.2 03:47:29 10° NW 03:48:18 11° NW 03:48:18 11° NW visible
11 Oct 4.0 01:38:07 10° NNE 01:40:12 25° NNE 01:40:12 25° NNE visible
11 Oct 4.0 03:19:08 10° NNW 03:21:06 15° NW 03:21:06 15° NW visible
12 Oct 4.4 01:11:25 10° NNE 01:12:59 20° NNE 01:12:59 20° NNE visible
12 Oct 3.8 02:51:42 10° N 02:53:54 20° NNW 02:53:54 20° NNW visible
